Clifton, CO (81520)

12:17 PM MST on January 26, 2015 (GMT -0700)
Clifton Area - SE of Patterson and 31.5 Rd | Change Station
CLOSE
Current Station
Personal Weather Station
Location: Grand Junction, CO
Elevation: 4737 ft
Nearby Weather Stations

Elev 4737 ft 39.09 °N, 108.47 °W | Updated 2 minutes ago

Clear
Clear
54.6 °F
Feels Like 54.6 °F
N
3.0
Wind Variable Wind from SSW
Gusts 5.0 mph

Today
High -- | Low -- °F
--% Chance of Precip.
Yesterday
High -- | Low -- °F
Precip. -- in
7:25 AM 5:27 PM
Waxing Crescent, 46% visible
Pressure 30.38 in
Visibility 10.0 miles
Clouds Clear
Dew Point 30 °F
Humidity 39%
Rainfall 0.00 in
Snow Depth Not available.
UV 4 out of 12
Pollen .10 out of 12
Air Quality Not available.
Flu Activity Not available.
METAR KGJT 261853Z 16006KT 10SM CLR 09/M03 A3039 RMK AO2 SLP285 T00891033

More Conditions Fewer Conditions

Pressure 30.38 in
Visibility 10.0 miles
Clouds Clear
Dew Point 30 °F
Humidity 39%
Rainfall 0.00 in
Snow Depth Not available.
UV 4 out of 12
Pollen .10 out of 12
Air Quality Not available.
Flu Activity Not available.
METAR KGJT 261853Z 16006KT 10SM CLR 09/M03 A3039 RMK AO2 SLP285 T00891033

More Conditions Fewer Conditions

10-Day Weather Forecast

Almanac

Astronomy

Jan. 26, 2015 Rise Set
Actual Time
Civil Twilight
Nautical Twilight
Astronomical Twilight
Moon
Length of Visible Light
Length of Day
Tomorrow will be .
, % of the Moon is Illuminated

Today's Extremes

State Highs State Lows

Community

WunderPhotos

Upload Photos

1,790,336 photos uploaded!

WunderBlogs® & News

Nearby

Air Quality

  Air Quality AQ Index Pollutant
Not available.

Snow Depth

Station Depth Elevation

Earthquake Activity

City Distance Mag. Time & Date
Minimum magnitude displayed is 2.5.

Coastal Water Temperatures

Place Temperature

Nearby Weather Stations